User: anonymous   Login
Location: Proctor
(47.8934°N, 114.3048°W)
Time: 22:54:43
(UTC+00:00)
Language:

Transit 2A Rocket - Orbit

View from above orbital plane
View from above orbital plane
View from above satellite
View from above satellite

Ground track
Ground track

The orbit data is extracted from the following two-line orbital elements,

1 00047U 60007C   24167.52710813  .00000583  00000-0  14919-3 0  9994
2 00047  66.6638 210.9081 0229185 313.8082  44.4265 14.43588843345129
Epoch (UTC): 15 June 2024 12:39:02
Eccentricity: 0.0229185
inclination: 66.6638°
perigee height: 583 km
apogee height: 910 km
right ascension of ascending node: 210.9081°
argument of perigee: 313.8082°
revolutions per day: 14.43588843
mean anomaly at epoch: 44.4265°
orbit number at epoch: 34512

The dashed part of the orbit path shows where the satellite is in the earth's shadow,  

DLR